Location: Albany
(35.0170°S, 117.8920°E)
Time: 03:11:15
(UTC+08:00)

Vanguard 1 - Pass Details

Date: 31 January 2021
Orbit: 649 x 3833 km, 34.2° (Epoch: 26 February)

Event Time Altitude Azimuth Distance (km) Brightness Sun altitude
Rises 01:42:46 0° 273° (W) 4,276 - -34.1°
Reaches altitude 10° 01:46:13 10° 274° (W) 2,912 - -33.8°
Maximum altitude 01:52:38 84° 359° (N) 780 - -33.3°
Exits shadow 01:56:54 12° 88° (E) 1,976 11.9 -32.9°
Drops below altitude 10° 01:57:10 10° 88° (E) 2,087 12.0 -32.9°
Sets 01:59:17 0° 89° (E) 2,969 12.9 -32.7°
